Regional Weather Roundup
Issued by NWS

Home | Current Version | Previous Version | Graphics & Text | Print | Product List | Glossary On
Versions: 1 2 3 4 5 6 7 8 9 10 11 12 13 14 15 16 17 18 19 20 21 22 23 24 25 26 27 28 29 30 31 32 33 34 35 36 37 38 39 40 41 42 43 44 45 46 47 48 49 50
000
ASUS43 KMPX 301910
RWRMN
WEATHER ROUNDUP FOR MINNESOTA
NATIONAL WEATHER SERVICE TWIN CITIES/CHANHASSEN MN
200 PM CDT FRI SEP 30 2016


NOTE: "FAIR" INDICATES FEW OR NO CLOUDS BELOW 12,000 FEET WITH NO
SIGNIFICANT WEATHER AND/OR OBSTRUCTIONS TO VISIBILITY. N/A MEANS
CURRENT SKY AND/OR WEATHER CONDITIONS ARE NOT AVAILABLE.

MNZ060>063-068>070-302000-
   Twin Cities Metro

CITY           SKY/WX    TMP DP  RH WIND       PRES   REMARKS
TWIN CITIES    SUNNY     68  53  58 NE8G17    30.29F
ST PAUL        SUNNY     68  53  58 N5        30.29F
CRYSTAL        SUNNY     68  50  52 NE7       30.29F
LAKEVILLE      SUNNY     68  52  56 NE7G17    30.28F
EDEN PRAIRIE   SUNNY     68  53  58 NE8       30.28F
LAKEVILLE      SUNNY     68  52  56 NE7G17    30.28F
SOUTH ST PAUL  SUNNY     69  50  50 NE8       30.28F
LAKE ELMO      FAIR      68  55  64 N8        30.29F
$$
MNZ001>005-007-008-013>017-022>024-027-028-302000-
   Northwest Minnesota

CITY           SKY/WX    TMP DP  RH WIND       PRES   REMARKS
BEMIDJI        CLOUDY    56  51  84 E10       30.35F
HALLOCK        PTSUNNY   66  54  63 S12       30.25F
ROSEAU         SUNNY     61  54  77 SE12      30.31F
WARROAD        SUNNY     61  54  77 SE10      30.33F
THIEF RVR FALL MOSUNNY   63  53  70 SE12G18   30.29F
CROOKSTON      CLOUDY    66  52  59 S13       30.27F
FOSSTON        SUNNY     66  48  52 S13G20    30.30F
DETROIT LAKES  SUNNY     61  52  72 SE10      30.31F
MOORHEAD       SUNNY     70  50  49 S16       30.26F
PARK RAPIDS    MOSUNNY   62  51  67 E6        30.33F
MAHNOMEN       FAIR      66  51  59 S8G17     30.29F
$$
MNZ006-009>011-018-025>026-302000-
   North Central Minnesota

CITY           SKY/WX    TMP DP  RH WIND       PRES   REMARKS
BAUDETTE       CLOUDY    52  49  89 SE12      30.37F
FLAG ISLAND    MOSUNNY   55  52  88 S17       30.32F
INTL FALLS     CLOUDY    53  50  89 SE8       30.38F
WASKISH        CLOUDY    55  54  94 E7          N/A
BIG FORK       CLOUDY    57  52  82 E3        30.38F
GRAND RAPIDS   SUNNY     62  51  67 VRB6      30.38F
CRANE LAKE     SUNNY     57  52  82 NW3       30.40F
ORR            SUNNY     61  50  67 SE3       30.36F
COOK           SUNNY     64  52  63 SE3       30.38F
WALKER         CLOUDY    55  51  86 SE5       30.35F
$$
MNZ012-019>021-037-302000-
   Northeast Minnesota

CITY           SKY/WX    TMP DP  RH WIND       PRES   REMARKS
DULUTH         PTSUNNY   55  51  86 E14       30.39F
ELY            SUNNY     66  45  45 SE6       30.38F
HIBBING        SUNNY     62  51  67 SE5       30.37F
EVELETH        SUNNY     64  47  54 SE6       30.39F
DULUTH HARBOR  CLOUDY    55  52  88 NE10      30.40F
TWO HARBORS    CLOUDY    61  54  77 E10       30.38F
SILVER BAY     CLOUDY    57  54  88 E3        30.39F
GRAND MARAIS     N/A     60  54  80 E9        30.40F
G MARAIS ARPRT SUNNY     64  48  55 SE7       30.41F
$$
MNZ029>031-032-039>041-046>048-054>057-064-302000-
   West Central Minnesota

CITY           SKY/WX    TMP DP  RH WIND       PRES   REMARKS
FERGUS FALLS   CLOUDY    66  54  63 SE12      30.30F
MORRIS         SUNNY     70  54  56 SE9G16    30.28F
ALEXANDRIA     CLOUDY    63  54  72 E7        30.33F
ELBOW LAKE     FAIR      65  54  68 SE10G16   30.30F
WADENA         CLOUDY    59  52  77 SE8       30.32F
GLENWOOD       CLOUDY    66  54  63 E10       30.31F
APPLETON       SUNNY     70  54  56 SE8       30.27F
ORTONVILLE     SUNNY     68  52  56 SE12      30.27F
MADISON        MOSUNNY   72  52  49 SE10      30.26F
WILLMAR        FAIR      68  55  64 E7        30.31F
$$
MNZ033>034-036-042>043-049>051-058-059-302000-
   Central Minnesota

CITY           SKY/WX    TMP DP  RH WIND       PRES   REMARKS
ST CLOUD       SUNNY     66  53  63 E7        30.32F
SAUK CENTRE    FAIR      61  54  75 E8        30.33F
PAYNESVILLE    SUNNY     64  53  67 CALM      30.32F
AITKIN           N/A     66  48  52 CALM      30.34F HAZE
PINE RIVER     MOSUNNY   59  52  77 E5        30.37F
BRAINERD       SUNNY     63  52  67 NE6       30.35F
STAPLES        SUNNY     61  50  67 E5        30.33F
LONG PRAIRIE   FAIR      61  52  72 E5        30.33F
LITTLE FALLS   SUNNY     61  52  72 E7        30.33F
LITCHFIELD     SUNNY     68  54  60 E6        30.31F
BUFFALO        SUNNY     66  53  61 N8        30.31F
MAPLE LAKE     SUNNY     67  57  69 N6        30.32F
HUTCHINSON     PTSUNNY   68  56  64 E5        30.31F
$$
MNZ037-044-045-052-053-302000-
   East Central Minnesota

CITY           SKY/WX    TMP DP  RH WIND       PRES   REMARKS
PRINCETON      SUNNY     68  54  60 NE5       30.32F
MORA           SUNNY     64  52  63 CALM      30.35F
CAMBRIDGE      SUNNY     68  52  56 N5        30.30F
RUSH CITY      SUNNY     68  52  56 N7        30.31
MOOSE LAKE     SUNNY     61  52  72 NE12      30.35F
HINCKLEY       FAIR      68  52  56 N3        30.33F
CLOQUET        PTSUNNY   55  48  76 E8        30.38F
MCGREGOR       SUNNY     64  52  63 NE6       30.35F
$$
MNZ071>073-080-081-089-090-097-098-302000-
   Southwest Minnesota

CITY           SKY/WX    TMP DP  RH WIND       PRES   REMARKS
MONTEVIDEO     SUNNY     72  54  53 S7        30.29F
GRANITE FALLS  SUNNY     71  53  53 E7        30.30F
CANBY          SUNNY     71  49  45 SE12G21   30.27F
MARSHALL       SUNNY     69  51  52 SE8       30.28F
REDWOOD FALLS  SUNNY     70  49  47 VRB6      30.28F
OLIVIA         SUNNY     70  52  52 E5        30.28F
PIPESTONE      SUNNY     72  43  35 SE12      30.26F
WINDOM         SUNNY     70  45  40 E8        30.27F
WORTHINGTON    SUNNY     69  49  48 E8        30.27F
JACKSON        SUNNY     70  41  35 NE10      30.27F
TRACY          SUNNY     70  51  50 SE7       30.28F
SLAYTON        SUNNY     70  46  43 E8        30.28F
$$
MNZ065>067-074>077-082>085-091>093-302000-
   South Central Minnesota

CITY           SKY/WX    TMP DP  RH WIND       PRES   REMARKS
MANKATO        SUNNY     68  51  54 NE12      30.27F
NEW ULM        SUNNY     68  48  49 NE8G16    30.27F
ST JAMES       SUNNY     70  48  46 NE10      30.27F
FAIRMONT       SUNNY     71  49  45 NE7       30.26F
GLENCOE        SUNNY     67  56  67 NE7       30.29F
FARIBAULT      SUNNY     70  52  52 N9        30.27F
OWATONNA       MOSUNNY   70  52  52 N9        30.26F
WASECA         MOSUNNY   70  52  52 NE7G18    30.27F
ALBERT LEA     PTSUNNY   70  52  52 NE9       30.25F
$$
MNZ078>079-086>088-094>096-302000-
   Southeast Minnesota

CITY           SKY/WX    TMP DP  RH WIND       PRES   REMARKS
ROCHESTER      MOSUNNY   69  54  58 NE9       30.25F
RED WING       SUNNY     72  45  37 E8        30.25F
STANTON        MOSUNNY   72  51  46 N7        30.25F
DODGE CENTER   MOSUNNY   70  48  46 NE12      30.26F
WINONA         PTSUNNY   70  54  56 CALM      30.25F
AUSTIN         PTSUNNY   68  54  60 NE8       30.25F
PRESTON        CLOUDY    65  53  65 E8        30.26F
$$
ABBREVIATIONS USED IN REMARKS
   TC - TEMPERATURES IN CELSIUS
  WCI - WIND CHILL INDEX
   HX - HEAT INDEX
  VSB - VISIBILITY
$$



USA.gov is the U.S. government's official web portal to all federal, state and local government web resources and services.